Simultaneous Nadir Overpasses (SNOs) Predictions

Prediction of SNOs near US between AQUA and NPP Satellite Orbit:

Table of predicted SNOs near US for the next 10.0 days since TLE Epoch: 11/2/2013
Index Date (AQUA) Time (AQUA) AQUA Lat,Lon Date (NPP) Time (NPP) NPP Lat,Lon Distance(km) Time Diff (sec)
1 11/02/2013 19:06:45 49.98, -92.65 11/02/2013 19:02:29 49.68, -94.48 135.60 256
2 11/02/2013 20:45:38 49.96,-117.36 11/02/2013 20:43:56 49.51,-119.78 180.83 102
3 11/05/2013 08:35:34 20.01,-102.01 11/05/2013 08:27:15 19.99,-102.05 4.41 499
4 11/05/2013 10:11:56 29.12,-124.51 11/05/2013 10:06:07 29.24,-125.04 53.06 349
5 11/08/2013 07:19:22 49.91, -76.14 11/08/2013 07:21:28 50.33, -78.14 149.86 126
6 11/08/2013 08:58:15 49.92,-100.85 11/08/2013 09:02:56 50.44,-103.46 194.21 281
7 11/10/2013 18:17:37 49.99, -80.37 11/10/2013 18:11:46 49.75, -81.80 105.86 351
8 11/10/2013 19:56:30 49.98,-105.08 11/10/2013 19:53:14 49.64,-107.12 151.01 196
9 11/10/2013 21:31:30 36.08,-124.99 11/10/2013 21:30:42 35.63,-127.40 222.68 48




NCC Satellite Simultaneous Nadir Overpasses (SNOs) Prediction Service
